Location: Audinghen
(50.8518°N, 1.6129°E)
Time: 21:53:07
(UTC+00:00)

ERBS - Pass Details

Date: 07 August 2020
Orbit: 412 x 420 km, 57.0° (Epoch: 22 September)

Event Time Altitude Azimuth Distance (km) Brightness Sun altitude
Rises 02:57:14 0° 294° (WNW) 2,355 5.9 -12.4°
Reaches altitude 10° 02:59:38 10° 278° (W) 1,488 4.7 -12.1°
Maximum altitude 03:02:12 21° 228° (SW) 995 3.5 -11.8°
Drops below altitude 10° 03:04:45 10° 177° (S) 1,480 4.6 -11.6°
Sets 03:07:08 0° 160° (SSE) 2,338 5.8 -11.3°
